Location: Songkhla
(7.2000°N, 100.6000°E)
Time: 14:07:10
(UTC+07:00)

ISS - Pass Details

Date: 13 May 2021
Orbit: 417 x 422 km, 51.6° (Epoch: 21 June)

Event Time Altitude Azimuth Distance (km) Brightness Sun altitude
Rises 19:01:59 0° 202° (SSW) 2,347 0.1 -9.0°
Reaches altitude 10° 19:04:11 10° 193° (SSW) 1,484 -1.0 -9.5°
Maximum altitude 19:07:16 35° 125° (SE) 691 -3.2 -10.2°
Drops below altitude 10° 19:10:20 10° 58° (ENE) 1,484 -1.3 -10.9°
Sets 19:12:32 0° 48° (NE) 2,346 -0.2 -11.4°
Enters shadow 19:12:34 - 48° (NE) 2,358 -0.2 -11.4°
